,,Stat6,,Stat2,,Stat8,,Stat9,,Stat10,,Wind1,,Wind1,
time,status,PA1M_AVG,status,PR1M_SUM,status,RH1M_AVG,status,SR1M_AVG,status,TA1M_AVG,status,W1dAve1m,status,W1sAve1m,
2008-08-17, 00:00:00,VALID,917.686,VALID,0,VALID,100,VALID,-0.0509425,VALID,20.2379,VALID,127,VALID,0,
2008-08-17, 00:01:00,VALID,917.665,VALID,0,VALID,100,VALID,-0.0679233,VALID,20.2444,VALID,127,VALID,0,
2008-08-17, 00:02:00,VALID,917.667,VALID,0,VALID,100,VALID,-0.0849042,VALID,20.2574,VALID,127,VALID,0,
2008-08-17, 00:03:00,VALID,917.667,VALID,0,VALID,100,VALID,-0.0339617,VALID,20.2574,VALID,127,VALID,0,
2008-08-17, 00:04:00,VALID,917.665,VALID,0,VALID,100,VALID,-0.0509425,VALID,20.2344,VALID,127,VALID,0,
2008-08-17, 00:05:00,VALID,917.662,VALID,0,VALID,100,VALID,-0.0509425,VALID,20.2115,VALID,127,VALID,0,
2008-08-17, 00:06:00,VALID,917.658,VALID,0,VALID,100,VALID,0.0339617,VALID,20.1815,VALID,127,VALID,0,
2008-08-17, 00:07:00,VALID,917.668,VALID,0,VALID,100,VALID,0,VALID,20.1593,VALID,127,VALID,0,
2008-08-17, 00:08:00,VALID,917.66,VALID,0,VALID,100,VALID,0.0339617,VALID,20.1391,VALID,127,VALID,0.133194,
2008-08-17, 00:09:00,VALID,917.654,VALID,0,VALID,100,VALID,0.0339617,VALID,20.1164,VALID,127,VALID,0.300781,
2008-08-17, 00:10:00,VALID,917.647,VALID,0,VALID,100,VALID,0.0339617,VALID,20.1169,VALID,127,VALID,0.157584,
2008-08-17, 00:11:00,VALID,917.638,VALID,0,VALID,100,VALID,0.0339617,VALID,20.0936,VALID,127,VALID,0,
2008-08-17, 00:12:00,VALID,917.641,VALID,0,VALID,100,VALID,0.0169808,VALID,20.0779,VALID,127,VALID,0,
2008-08-17, 00:13:00,VALID,917.631,VALID,0,VALID,100,VALID,0.0339617,VALID,20.055,VALID,123,VALID,0,
2008-08-17, 00:14:00,VALID,917.618,VALID,0,VALID,100,VALID,0.0339617,VALID,20.0317,VALID,113,VALID,0,
2008-08-17, 00:15:00,VALID,917.597,VALID,0,VALID,100,VALID,0.0339617,VALID,20.013,VALID,104,VALID,0.453472,
2008-08-17, 00:16:01,VALID,917.573,VALID,0,VALID,100,VALID,0.0339617,VALID,19.9968,VALID,107,VALID,0.520774,
2008-08-17, 00:17:00,VALID,917.556,VALID,0,VALID,100,VALID,0.0169808,VALID,19.9771,VALID,119,VALID,0.278274,
2008-08-17, 00:18:00,VALID,917.542,VALID,0,VALID,100,VALID,0.0169808,VALID,19.9771,VALID,126,VALID,0.114769,
2008-08-17, 00:19:00,VALID,917.53,VALID,0,VALID,100,VALID,0.0339617,VALID,19.9801,VALID,130,VALID,0.567522,
2008-08-17, 00:20:00,VALID,917.534,VALID,0,VALID,100,VALID,0.0169808,VALID,19.9906,VALID,135,VALID,0.722929,
2008-08-17, 00:21:00,VALID,917.517,VALID,0,VALID,100,VALID,0.0169808,VALID,19.9898,VALID,140,VALID,0.80069,
2008-08-17, 00:22:00,VALID,917.501,VALID,0,VALID,100,VALID,0,VALID,20.0098,VALID,139,VALID,0.451389,
2008-08-17, 00:23:00,VALID,917.485,VALID,0,VALID,100,VALID,0.0169808,VALID,19.9963,VALID,125,VALID,0,
2008-08-17, 00:24:00,VALID,917.462,VALID,0,VALID,100,VALID,0.0169808,VALID,20.0098,VALID,112,VALID,0,
2008-08-17, 00:25:00,VALID,917.448,VALID,0,VALID,100,VALID,0,VALID,20.013,VALID,112,VALID,0,
2008-08-17, 00:26:00,VALID,917.431,VALID,0,VALID,100,VALID,0.0339617,VALID,20.0195,VALID,112,VALID,0,
2008-08-17, 00:27:00,VALID,917.425,VALID,0,VALID,100,VALID,0.0169808,VALID,20.0397,VALID,114,VALID,0,
2008-08-17, 00:28:00,VALID,917.407,VALID,0,VALID,100,VALID,0,VALID,20.0287,VALID,123,VALID,0.131037,
2008-08-17, 00:29:00,VALID,917.414,VALID,0,VALID,100,VALID,0,VALID,20.0293,VALID,119,VALID,0.118862,
2008-08-17, 00:30:00,VALID,917.4,VALID,0,VALID,100,VALID,-0.0169808,VALID,20.0135,VALID,100,VALID,0,
2008-08-17, 00:31:00,VALID,917.373,VALID,0,VALID,100,VALID,0,VALID,19.9838,VALID,90,VALID,0.498001,
2008-08-17, 00:32:00,VALID,917.338,VALID,0,VALID,100,VALID,0.0339617,VALID,19.9674,VALID,82,VALID,0.799132,
2008-08-17, 00:33:00,VALID,917.297,VALID,0,VALID,100,VALID,0,VALID,19.9416,VALID,81,VALID,0.722301,
2008-08-17, 00:34:01,VALID,917.252,VALID,0,VALID,100,VALID,0.0339617,VALID,19.9282,VALID,82,VALID,0.72093,
2008-08-17, 00:35:01,VALID,917.214,VALID,0,VALID,100,VALID,-0.0169808,VALID,19.9189,VALID,89,VALID,0.744731,
2008-08-17, 00:36:01,VALID,917.187,VALID,0,VALID,100,VALID,-0.0679233,VALID,19.913,VALID,98,VALID,0.682049,
2008-08-17, 00:37:01,VALID,917.177,VALID,0,VALID,100,VALID,-0.0679233,VALID,19.9,VALID,99,VALID,0.599787,
2008-08-17, 00:38:00,VALID,917.178,VALID,0,VALID,100,VALID,0,VALID,19.8668,VALID,100,VALID,0.746911,
2008-08-17, 00:39:00,VALID,917.168,VALID,0,VALID,100,VALID,0,VALID,19.8603,VALID,108,VALID,0.881479,
2008-08-17, 00:40:01,VALID,917.173,VALID,0,VALID,100,VALID,0,VALID,19.8668,VALID,124,VALID,0.947027,
2008-08-17, 00:41:00,VALID,917.178,VALID,0,VALID,100,VALID,0,VALID,19.8575,VALID,131,VALID,0.656822,
2008-08-17, 00:42:00,VALID,917.187,VALID,0,VALID,100,VALID,0,VALID,19.8505,VALID,144,VALID,0.744186,
2008-08-17, 00:43:00,VALID,917.191,VALID,0,VALID,100,VALID,-0.0339617,VALID,19.8341,VALID,150,VALID,0.466844,
2008-08-17, 00:44:00,VALID,917.178,VALID,0,VALID,100,VALID,0,VALID,19.854,VALID,151,VALID,0.577195,
2008-08-17, 00:45:01,VALID,917.185,VALID,0,VALID,100,VALID,-0.0339617,VALID,19.8797,VALID,158,VALID,0.182173,
2008-08-17, 00:46:01,VALID,917.176,VALID,0,VALID,100,VALID,-0.0339617,VALID,19.896,VALID,146,VALID,0,
2008-08-17, 00:47:00,VALID,917.163,VALID,0,VALID,100,VALID,-0.0169808,VALID,19.9252,VALID,151,VALID,0,
2008-08-17, 00:48:01,VALID,917.15,VALID,0,VALID,100,VALID,0,VALID,19.9422,VALID,151,VALID,0,
2008-08-17, 00:49:00,VALID,917.133,VALID,0,VALID,100,VALID,-0.0509425,VALID,19.9349,VALID,146,VALID,0.170945,
2008-08-17, 00:50:00,VALID,917.131,VALID,0,VALID,100,VALID,-0.0169808,VALID,19.9257,VALID,122,VALID,0.19215,
2008-08-17, 00:51:00,VALID,917.117,VALID,0,VALID,100,VALID,-0.0509425,VALID,19.8962,VALID,120,VALID,0,
2008-08-17, 00:52:00,VALID,917.108,VALID,0,VALID,100,VALID,-0.0339617,VALID,19.883,VALID,111,VALID,0.414634,
2008-08-17, 00:53:00,VALID,917.098,VALID,0,VALID,100,VALID,0,VALID,19.864,VALID,95,VALID,0.00741186,
2008-08-17, 00:54:00,VALID,917.086,VALID,0,VALID,100,VALID,-0.0169808,VALID,19.8545,VALID,95,VALID,0,
2008-08-17, 00:55:01,VALID,917.098,VALID,0,VALID,100,VALID,-0.0169808,VALID,19.8508,VALID,95,VALID,0,
2008-08-17, 00:56:00,VALID,917.087,VALID,0,VALID,100,VALID,-0.0339617,VALID,19.8605,VALID,95,VALID,0,
2008-08-17, 00:57:00,VALID,917.081,VALID,0,VALID,100,VALID,-0.0169808,VALID,19.8503,VALID,95,VALID,0,
2008-08-17, 00:58:00,VALID,917.084,VALID,0,VALID,100,VALID,0,VALID,19.8508,VALID,95,VALID,0,
2008-08-17, 00:59:00,VALID,917.078,VALID,0,VALID,100,VALID,-0.0169808,VALID,19.8346,VALID,81,VALID,0,
2008-08-17, 01:00:01,VALID,917.08,VALID,0,VALID,100,VALID,-0.0169808,VALID,19.8281,VALID,352,VALID,0,
2008-08-17, 01:01:00,VALID,917.086,VALID,0,VALID,100,VALID,0,VALID,19.8408,VALID,346,VALID,0.061942,
2008-08-17, 01:02:00,VALID,917.094,VALID,0,VALID,100,VALID,-0.0679233,VALID,19.8508,VALID,342,VALID,0,
2008-08-17, 01:03:00,VALID,917.097,VALID,0,VALID,100,VALID,-0.0509425,VALID,19.857,VALID,342,VALID,0,
2008-08-17, 01:04:01,VALID,917.101,VALID,0,VALID,100,VALID,-0.0169808,VALID,19.8733,VALID,342,VALID,0,
2008-08-17, 01:05:00,VALID,917.097,VALID,0,VALID,100,VALID,-0.0339617,VALID,19.857,VALID,342,VALID,0,
2008-08-17, 01:06:01,VALID,917.113,VALID,0,VALID,100,VALID,0,VALID,19.8568,VALID,342,VALID,0,
2008-08-17, 01:07:01,VALID,917.111,VALID,0,VALID,100,VALID,0,VALID,19.8568,VALID,342,VALID,0,
2008-08-17, 01:08:01,VALID,917.113,VALID,0,VALID,100,VALID,0,VALID,19.8443,VALID,342,VALID,0,
2008-08-17, 01:09:01,VALID,917.117,VALID,0,VALID,100,VALID,-0.0169808,VALID,19.8149,VALID,342,VALID,0,
2008-08-17, 01:10:01,VALID,917.123,VALID,0,VALID,100,VALID,-0.0169808,VALID,19.7954,VALID,342,VALID,0,
2008-08-17, 01:11:01,VALID,917.14,VALID,0,VALID,100,VALID,0,VALID,19.7954,VALID,342,VALID,0,
2008-08-17, 01:12:01,VALID,917.142,VALID,0,VALID,100,VALID,0,VALID,19.7789,VALID,342,VALID,0,
2008-08-17, 01:13:01,VALID,917.133,VALID,0,VALID,100,VALID,0,VALID,19.7567,VALID,342,VALID,0,
2008-08-17, 01:14:01,VALID,917.121,VALID,0,VALID,100,VALID,0,VALID,19.6946,VALID,16,VALID,0,
2008-08-17, 01:15:01,VALID,917.107,VALID,0,VALID,100,VALID,-0.0169808,VALID,19.6556,VALID,43,VALID,0,
2008-08-17, 01:16:01,VALID,917.104,VALID,0,VALID,100,VALID,-0.0169808,VALID,19.6491,VALID,43,VALID,0.030692,
2008-08-17, 01:17:00,VALID,917.08,VALID,0,VALID,100,VALID,0,VALID,19.6199,VALID,60,VALID,0.0736607,
2008-08-17, 01:18:00,VALID,917.079,VALID,0,VALID,100,VALID,-0.0169808,VALID,19.5778,VALID,127,VALID,0,
2008-08-17, 01:19:00,VALID,917.076,VALID,0,VALID,100,VALID,-0.0169808,VALID,19.5421,VALID,128,VALID,0,
2008-08-17, 01:20:00,VALID,917.073,VALID,0,VALID,100,VALID,-0.0509425,VALID,19.5201,VALID,128,VALID,0,
2008-08-17, 01:21:00,VALID,917.066,VALID,0,VALID,100,VALID,-0.118866,VALID,19.5079,VALID,127,VALID,0,
2008-08-17, 01:22:00,VALID,917.06,VALID,0,VALID,100,VALID,-0.101885,VALID,19.5046,VALID,127,VALID,0,
2008-08-17, 01:23:00,VALID,917.057,VALID,0,VALID,100,VALID,-0.101885,VALID,19.5111,VALID,126,VALID,0,
2008-08-17, 01:24:00,VALID,917.068,VALID,0,VALID,100,VALID,-0.0679233,VALID,19.5303,VALID,126,VALID,0,
2008-08-17, 01:25:00,VALID,917.062,VALID,0,VALID,100,VALID,-0.101885,VALID,19.5498,VALID,125,VALID,0,
2008-08-17, 01:26:00,VALID,917.059,VALID,0,VALID,100,VALID,-0.101885,VALID,19.5793,VALID,117,VALID,0,
2008-08-17, 01:27:00,VALID,917.064,VALID,0,VALID,100,VALID,-0.0849042,VALID,19.5857,VALID,110,VALID,0,
2008-08-17, 01:28:00,VALID,917.056,VALID,0,VALID,100,VALID,-0.0849042,VALID,19.5917,VALID,111,VALID,0,
2008-08-17, 01:29:00,VALID,917.035,VALID,0,VALID,100,VALID,-0.0679233,VALID,19.6441,VALID,111,VALID,0,
2008-08-17, 01:30:00,VALID,917.028,VALID,0,VALID,100,VALID,-0.0679233,VALID,19.6766,VALID,111,VALID,0,
2008-08-17, 01:31:00,VALID,917.013,VALID,0,VALID,100,VALID,-0.101885,VALID,19.6993,VALID,97,VALID,0,
2008-08-17, 01:32:00,VALID,916.982,VALID,0,VALID,100,VALID,-0.101885,VALID,19.7188,VALID,117,VALID,0.190217,
2008-08-17, 01:33:00,VALID,916.963,VALID,0,VALID,100,VALID,-0.101885,VALID,19.7512,VALID,130,VALID,0.00272529,
2008-08-17, 01:34:00,VALID,916.961,VALID,0,VALID,100,VALID,-0.101885,VALID,19.7737,VALID,111,VALID,0.00234375,
2008-08-17, 01:35:00,VALID,916.94,VALID,0,VALID,100,VALID,-0.0509425,VALID,19.7926,VALID,118,VALID,0.797805,
2008-08-17, 01:36:00,VALID,916.937,VALID,0,VALID,100,VALID,-0.0509425,VALID,19.8246,VALID,139,VALID,1.07617,
2008-08-17, 01:37:00,VALID,916.958,VALID,0,VALID,100,VALID,-0.0169808,VALID,19.864,VALID,135,VALID,0.970656,
2008-08-17, 01:38:00,VALID,916.966,VALID,0,VALID,100,VALID,0,VALID,19.8635,VALID,121,VALID,0.851017,
2008-08-17, 01:39:00,VALID,916.987,VALID,0,VALID,100,VALID,-0.0169808,VALID,19.88,VALID,118,VALID,0.691034,
2008-08-17, 01:40:00,VALID,916.987,VALID,0,VALID,100,VALID,-0.0339617,VALID,19.8867,VALID,109,VALID,0.451079,
2008-08-17, 01:41:00,VALID,916.971,VALID,0,VALID,100,VALID,-0.0169808,VALID,19.886,VALID,107,VALID,0.0210938,
2008-08-17, 01:42:00,VALID,916.972,VALID,0,VALID,100,VALID,-0.0169808,VALID,19.8962,VALID,109,VALID,0.57691,
2008-08-17, 01:43:00,VALID,916.956,VALID,0,VALID,100,VALID,-0.0339617,VALID,19.9129,VALID,134,VALID,0.875182,
2008-08-17, 01:44:00,VALID,916.933,VALID,0,VALID,100,VALID,0,VALID,19.896,VALID,130,VALID,0.931597,
2008-08-17, 01:45:00,VALID,916.922,VALID,0,VALID,100,VALID,0.0169808,VALID,19.9154,VALID,129,VALID,0.788281,
2008-08-17, 01:46:00,VALID,916.902,VALID,0,VALID,100,VALID,0,VALID,19.9157,VALID,126,VALID,1.03311,
2008-08-17, 01:47:00,VALID,916.882,VALID,0,VALID,100,VALID,0,VALID,19.9025,VALID,108,VALID,0.953125,
2008-08-17, 01:48:00,VALID,916.889,VALID,0,VALID,100,VALID,-0.0169808,VALID,19.896,VALID,109,VALID,0.914634,
2008-08-17, 01:49:00,VALID,916.871,VALID,0,VALID,100,VALID,0,VALID,19.896,VALID,108,VALID,1.08765,
2008-08-17, 01:50:00,VALID,916.873,VALID,0,VALID,100,VALID,-0.0169808,VALID,19.8897,VALID,122,VALID,0.182173,
2008-08-17, 01:51:00,VALID,916.88,VALID,0,VALID,100,VALID,-0.0339617,VALID,19.8995,VALID,124,VALID,0.216933,
2008-08-17, 01:52:00,VALID,916.875,VALID,0,VALID,100,VALID,0,VALID,19.893,VALID,124,VALID,0.645419,
2008-08-17, 01:53:00,VALID,916.871,VALID,0,VALID,100,VALID,-0.0169808,VALID,19.8965,VALID,125,VALID,0.833576,
2008-08-17, 01:54:00,VALID,916.867,VALID,0,VALID,100,VALID,-0.0169808,VALID,19.9027,VALID,114,VALID,1.03906,
2008-08-17, 01:55:00,VALID,916.846,VALID,0,VALID,100,VALID,-0.0339617,VALID,19.8925,VALID,109,VALID,0.704368,
2008-08-17, 01:56:00,VALID,916.843,VALID,0,VALID,100,VALID,-0.0169808,VALID,19.9035,VALID,123,VALID,0.603051,
2008-08-17, 01:57:00,VALID,916.83,VALID,0,VALID,100,VALID,-0.0339617,VALID,19.9002,VALID,120,VALID,0.608259,
2008-08-17, 01:58:00,VALID,916.805,VALID,0,VALID,100,VALID,-0.0169808,VALID,19.8965,VALID,118,VALID,0.501817,
2008-08-17, 01:59:00,VALID,916.801,VALID,0,VALID,100,VALID,0,VALID,19.8927,VALID,98,VALID,0.297656,
2008-08-17, 02:00:00,VALID,916.799,VALID,0,VALID,100,VALID,0,VALID,19.8895,VALID,100,VALID,0.353516,
2008-08-17, 02:01:00,VALID,916.791,VALID,0,VALID,100,VALID,0,VALID,19.8862,VALID,103,VALID,0.0409722,
2008-08-17, 02:02:00,VALID,916.785,VALID,0,VALID,100,VALID,0,VALID,19.8927,VALID,103,VALID,0,
2008-08-17, 02:03:00,VALID,916.781,VALID,0,VALID,100,VALID,-0.0169808,VALID,19.8962,VALID,103,VALID,0,
2008-08-17, 02:04:00,VALID,916.773,VALID,0,VALID,100,VALID,0,VALID,19.8962,VALID,103,VALID,0,
2008-08-17, 02:05:00,VALID,916.78,VALID,0,VALID,100,VALID,0,VALID,19.8925,VALID,103,VALID,0,
2008-08-17, 02:06:00,VALID,916.783,VALID,0,VALID,100,VALID,0.0169808,VALID,19.8827,VALID,103,VALID,0,
2008-08-17, 02:07:00,VALID,916.766,VALID,0,VALID,100,VALID,-0.0169808,VALID,19.88,VALID,103,VALID,0,
2008-08-17, 02:08:00,VALID,916.773,VALID,0,VALID,100,VALID,-0.0339617,VALID,19.8603,VALID,103,VALID,0,
2008-08-17, 02:09:00,VALID,916.751,VALID,0,VALID,100,VALID,-0.0169808,VALID,19.8673,VALID,103,VALID,0,
2008-08-17, 02:10:00,VALID,916.726,VALID,0,VALID,100,VALID,-0.0169808,VALID,19.8673,VALID,133,VALID,0,
2008-08-17, 02:11:00,VALID,916.712,VALID,0,VALID,100,VALID,0.0169808,VALID,19.86,VALID,163,VALID,0.693598,
2008-08-17, 02:12:00,VALID,916.679,VALID,0,VALID,100,VALID,-0.0169808,VALID,19.8568,VALID,164,VALID,0.0660342,
2008-08-17, 02:13:00,VALID,916.654,VALID,0,VALID,100,VALID,0,VALID,19.8538,VALID,163,VALID,0,
2008-08-17, 02:14:00,VALID,916.641,VALID,0,VALID,100,VALID,-0.0169808,VALID,19.8406,VALID,155,VALID,0.446114,
2008-08-17, 02:15:00,VALID,916.61,VALID,0,VALID,100,VALID,0,VALID,19.8308,VALID,158,VALID,0.27381,
2008-08-17, 02:16:00,VALID,916.605,VALID,0,VALID,100,VALID,0,VALID,19.8308,VALID,158,VALID,0,
2008-08-17, 02:17:00,VALID,916.6,VALID,0,VALID,100,VALID,0,VALID,19.8278,VALID,158,VALID,0,
2008-08-17, 02:18:00,VALID,916.602,VALID,0,VALID,100,VALID,0,VALID,19.8208,VALID,158,VALID,0,
2008-08-17, 02:19:00,VALID,916.618,VALID,0,VALID,100,VALID,-0.0509425,VALID,19.8084,VALID,157,VALID,0,
2008-08-17, 02:20:00,VALID,916.615,VALID,0,VALID,100,VALID,-0.118866,VALID,19.7897,VALID,157,VALID,0,
2008-08-17, 02:21:00,VALID,916.603,VALID,0,VALID,100,VALID,-0.135847,VALID,19.7804,VALID,157,VALID,0,
2008-08-17, 02:22:00,VALID,916.607,VALID,0,VALID,100,VALID,-0.118866,VALID,19.7804,VALID,157,VALID,0,
2008-08-17, 02:23:00,VALID,916.613,VALID,0,VALID,100,VALID,-0.101885,VALID,19.7809,VALID,157,VALID,0,
2008-08-17, 02:24:00,VALID,916.618,VALID,0,VALID,100,VALID,-0.118866,VALID,19.7936,VALID,157,VALID,0,
2008-08-17, 02:25:00,VALID,916.616,VALID,0,VALID,100,VALID,-0.135847,VALID,19.8001,VALID,157,VALID,0,
2008-08-17, 02:26:00,VALID,916.624,VALID,0,VALID,100,VALID,-0.118866,VALID,19.8034,VALID,157,VALID,0,
2008-08-17, 02:27:00,VALID,916.629,VALID,0,VALID,100,VALID,-0.152827,VALID,19.8039,VALID,160,VALID,0,
2008-08-17, 02:28:00,VALID,916.641,VALID,0,VALID,100,VALID,-0.169808,VALID,19.8104,VALID,182,VALID,0.14226,
2008-08-17, 02:29:00,VALID,916.66,VALID,0,VALID,100,VALID,-0.135847,VALID,19.8109,VALID,192,VALID,0.0244141,
2008-08-17, 02:30:00,VALID,916.663,VALID,0,VALID,100,VALID,-0.135847,VALID,19.7939,VALID,192,VALID,0,
2008-08-17, 02:31:00,VALID,916.666,VALID,0,VALID,100,VALID,-0.135847,VALID,19.7971,VALID,192,VALID,0,
2008-08-17, 02:32:00,VALID,916.662,VALID,0,VALID,100,VALID,-0.135847,VALID,19.8004,VALID,192,VALID,0,
2008-08-17, 02:33:00,VALID,916.668,VALID,0,VALID,100,VALID,-0.118866,VALID,19.7966,VALID,192,VALID,0,
2008-08-17, 02:34:00,VALID,916.657,VALID,0,VALID,100,VALID,-0.101885,VALID,19.8001,VALID,192,VALID,0,
2008-08-17, 02:35:00,VALID,916.675,VALID,0,VALID,100,VALID,-0.0509425,VALID,19.8124,VALID,192,VALID,0,
2008-08-17, 02:36:00,VALID,916.668,VALID,0,VALID,100,VALID,0,VALID,19.8308,VALID,192,VALID,0,
2008-08-17, 02:37:00,VALID,916.68,VALID,0,VALID,100,VALID,-0.0339617,VALID,19.7822,VALID,192,VALID,0,
2008-08-17, 02:38:00,VALID,916.655,VALID,0,VALID,100,VALID,0,VALID,19.7367,VALID,192,VALID,0,
2008-08-17, 02:39:00,VALID,916.637,VALID,0,VALID,100,VALID,0,VALID,19.6881,VALID,192,VALID,0,
2008-08-17, 02:40:00,VALID,916.599,VALID,0,VALID,100,VALID,-0.0339617,VALID,19.6329,VALID,192,VALID,0,
2008-08-17, 02:41:00,VALID,916.549,VALID,0,VALID,100,VALID,-0.0169808,VALID,19.6165,VALID,192,VALID,0,
2008-08-17, 02:42:00,VALID,916.532,VALID,0,VALID,100,VALID,-0.0169808,VALID,19.6132,VALID,192,VALID,0,
2008-08-17, 02:43:00,VALID,916.522,VALID,0,VALID,100,VALID,0,VALID,19.607,VALID,192,VALID,0,
2008-08-17, 02:44:00,VALID,916.522,VALID,0,VALID,100,VALID,0.0169808,VALID,19.5803,VALID,192,VALID,0,
2008-08-17, 02:45:00,VALID,916.521,VALID,0,VALID,100,VALID,0,VALID,19.5551,VALID,144,VALID,0.150391,
2008-08-17, 02:46:00,VALID,916.536,VALID,0,VALID,100,VALID,0,VALID,19.5453,VALID,123,VALID,0.369093,
2008-08-17, 02:47:00,VALID,916.55,VALID,0,VALID,100,VALID,-0.0169808,VALID,19.5224,VALID,123,VALID,0,
2008-08-17, 02:48:00,VALID,916.567,VALID,0,VALID,100,VALID,0,VALID,19.5096,VALID,123,VALID,0,
2008-08-17, 02:49:00,VALID,916.599,VALID,0,VALID,100,VALID,-0.0339617,VALID,19.5066,VALID,123,VALID,0.196733,
2008-08-17, 02:50:00,VALID,916.631,VALID,0,VALID,100,VALID,-0.0169808,VALID,19.4802,VALID,130,VALID,0.780523,
2008-08-17, 02:51:00,VALID,916.657,VALID,0,VALID,100,VALID,0,VALID,19.4513,VALID,124,VALID,0.814317,
2008-08-17, 02:52:00,VALID,916.67,VALID,0,VALID,100,VALID,0,VALID,19.4248,VALID,117,VALID,0.932355,
2008-08-17, 02:53:00,VALID,916.68,VALID,0,VALID,100,VALID,0.0169808,VALID,19.4091,VALID,114,VALID,0.378018,
2008-08-17, 02:54:00,VALID,916.654,VALID,0,VALID,100,VALID,0,VALID,19.3791,VALID,109,VALID,0,
2008-08-17, 02:55:00,VALID,916.611,VALID,0,VALID,100,VALID,0,VALID,19.3824,VALID,111,VALID,0,
2008-08-17, 02:56:00,VALID,916.564,VALID,0,VALID,100,VALID,0,VALID,19.3789,VALID,107,VALID,0,
2008-08-17, 02:57:00,VALID,916.53,VALID,0,VALID,100,VALID,0,VALID,19.3924,VALID,115,VALID,0,
2008-08-17, 02:58:00,VALID,916.485,VALID,0,VALID,100,VALID,0,VALID,19.3829,VALID,102,VALID,0,
2008-08-17, 02:59:00,VALID,916.457,VALID,0,VALID,100,VALID,-0.0169808,VALID,19.3734,VALID,108,VALID,0,
2008-08-17, 03:00:00,VALID,916.44,VALID,0,VALID,100,VALID,0,VALID,19.3956,VALID,124,VALID,0,
2008-08-17, 03:01:00,VALID,916.431,VALID,0,VALID,100,VALID,0.0169808,VALID,19.4153,VALID,122,VALID,0,
2008-08-17, 03:02:00,VALID,916.417,VALID,0,VALID,100,VALID,-0.0169808,VALID,19.4221,VALID,118,VALID,0,
2008-08-17, 03:03:00,VALID,916.408,VALID,0,VALID,100,VALID,0,VALID,19.4285,VALID,118,VALID,0,
2008-08-17, 03:04:00,VALID,916.406,VALID,0,VALID,100,VALID,0,VALID,19.4108,VALID,118,VALID,0,
2008-08-17, 03:05:00,VALID,916.413,VALID,0,VALID,100,VALID,0,VALID,19.4248,VALID,121,VALID,0,
2008-08-17, 03:06:00,VALID,916.41,VALID,0,VALID,100,VALID,-0.0339617,VALID,19.4415,VALID,117,VALID,0,
2008-08-17, 03:07:00,VALID,916.402,VALID,0,VALID,100,VALID,0,VALID,19.438,VALID,133,VALID,0.13157,
2008-08-17, 03:08:00,VALID,916.387,VALID,0,VALID,100,VALID,0.0169808,VALID,19.4413,VALID,139,VALID,0.212891,
2008-08-17, 03:09:00,VALID,916.367,VALID,0,VALID,100,VALID,0,VALID,19.4276,VALID,146,VALID,0.0166667,
2008-08-17, 03:10:00,VALID,916.344,VALID,0,VALID,100,VALID,-0.0169808,VALID,19.441,VALID,142,VALID,0.0610465,
2008-08-17, 03:11:00,VALID,916.317,VALID,0,VALID,100,VALID,-0.0509425,VALID,19.4475,VALID,149,VALID,0.0100446,
2008-08-17, 03:12:00,VALID,916.295,VALID,0,VALID,100,VALID,0,VALID,19.4345,VALID,144,VALID,0.0116235,
2008-08-17, 03:13:00,VALID,916.283,VALID,0,VALID,100,VALID,0,VALID,19.4313,VALID,137,VALID,0.205793,
2008-08-17, 03:14:00,VALID,916.272,VALID,0,VALID,100,VALID,-0.0169808,VALID,19.4443,VALID,137,VALID,0.0625,
2008-08-17, 03:15:00,VALID,916.281,VALID,0,VALID,100,VALID,0,VALID,19.4213,VALID,117,VALID,0.015439,
2008-08-17, 03:16:00,VALID,916.268,VALID,0,VALID,100,VALID,-0.0169808,VALID,19.4183,VALID,124,VALID,0.282584,
2008-08-17, 03:17:00,VALID,916.261,VALID,0,VALID,100,VALID,0,VALID,19.4216,VALID,121,VALID,0.000726744,
2008-08-17, 03:18:00,VALID,916.257,VALID,0,VALID,100,VALID,0.0169808,VALID,19.4343,VALID,126,VALID,0.0424361,
2008-08-17, 03:19:00,VALID,916.245,VALID,0,VALID,100,VALID,0,VALID,19.4378,VALID,123,VALID,0.0417259,
2008-08-17, 03:20:00,VALID,916.269,VALID,0,VALID,100,VALID,0,VALID,19.4637,VALID,126,VALID,0.103743,
2008-08-17, 03:21:00,VALID,916.293,VALID,0,VALID,100,VALID,0,VALID,19.4735,VALID,134,VALID,1.05126,
2008-08-17, 03:22:00,VALID,916.339,VALID,0,VALID,100,VALID,0,VALID,19.4795,VALID,130,VALID,0.992535,
2008-08-17, 03:23:00,VALID,916.375,VALID,0,VALID,100,VALID,0,VALID,19.4894,VALID,131,VALID,1.35955,
2008-08-17, 03:24:00,VALID,916.422,VALID,0,VALID,100,VALID,0,VALID,19.5024,VALID,129,VALID,1.1189,
2008-08-17, 03:25:00,VALID,916.465,VALID,0,VALID,100,VALID,0,VALID,19.5159,VALID,125,VALID,0.678943,
2008-08-17, 03:26:00,VALID,916.51,VALID,0,VALID,100,VALID,0,VALID,19.5256,VALID,123,VALID,0.798828,
2008-08-17, 03:27:00,VALID,916.542,VALID,0,VALID,100,VALID,0.0169808,VALID,19.5321,VALID,127,VALID,0.843023,
2008-08-17, 03:28:00,VALID,916.566,VALID,0,VALID,100,VALID,-0.0169808,VALID,19.5289,VALID,129,VALID,0.30522,
2008-08-17, 03:29:00,VALID,916.583,VALID,0,VALID,100,VALID,0,VALID,19.5451,VALID,110,VALID,0.485647,
2008-08-17, 03:30:00,VALID,916.611,VALID,0,VALID,100,VALID,0,VALID,19.5416,VALID,108,VALID,0.507241,
2008-08-17, 03:31:00,VALID,916.613,VALID,0,VALID,100,VALID,-0.0509425,VALID,19.5486,VALID,125,VALID,0.464753,
2008-08-17, 03:32:00,VALID,916.621,VALID,0,VALID,100,VALID,0,VALID,19.5581,VALID,148,VALID,0.333031,
2008-08-17, 03:33:00,VALID,916.609,VALID,0,VALID,100,VALID,-0.0169808,VALID,19.5616,VALID,146,VALID,0.443788,
2008-08-17, 03:34:00,VALID,916.615,VALID,0,VALID,100,VALID,0,VALID,19.5643,VALID,156,VALID,0.31141,
2008-08-17, 03:35:00,VALID,916.615,VALID,0,VALID,100,VALID,-0.0509425,VALID,19.575,VALID,156,VALID,0.311806,
2008-08-17, 03:36:00,VALID,916.614,VALID,0,VALID,100,VALID,-0.101885,VALID,19.5755,VALID,155,VALID,0.0539253,
2008-08-17, 03:37:00,VALID,916.616,VALID,0,VALID,100,VALID,-0.0849042,VALID,19.5855,VALID,163,VALID,0.0260417,
2008-08-17, 03:38:00,VALID,916.635,VALID,0,VALID,100,VALID,-0.0509425,VALID,19.582,VALID,145,VALID,0.968932,
2008-08-17, 03:39:00,VALID,916.649,VALID,0,VALID,100,VALID,-0.101885,VALID,19.582,VALID,148,VALID,0.444425,
2008-08-17, 03:40:00,VALID,916.641,VALID,0,VALID,100,VALID,-0.101885,VALID,19.5922,VALID,153,VALID,0.373958,
2008-08-17, 03:41:00,VALID,916.642,VALID,0,VALID,100,VALID,-0.0679233,VALID,19.579,VALID,150,VALID,0.548478,
2008-08-17, 03:42:00,VALID,916.649,VALID,0,VALID,100,VALID,-0.101885,VALID,19.5725,VALID,159,VALID,0.501302,
2008-08-17, 03:43:00,VALID,916.628,VALID,0,VALID,100,VALID,-0.0849042,VALID,19.5755,VALID,159,VALID,0.873047,
2008-08-17, 03:44:00,VALID,916.613,VALID,0,VALID,100,VALID,-0.0679233,VALID,19.5625,VALID,170,VALID,0.870458,
2008-08-17, 03:45:00,VALID,916.582,VALID,0,VALID,100,VALID,-0.0679233,VALID,19.5625,VALID,176,VALID,0.315168,
2008-08-17, 03:46:00,VALID,916.561,VALID,0,VALID,100,VALID,-0.0849042,VALID,19.5491,VALID,155,VALID,0.389757,
2008-08-17, 03:47:00,VALID,916.51,VALID,0,VALID,100,VALID,-0.0849042,VALID,19.5498,VALID,169,VALID,0.300872,
2008-08-17, 03:48:00,VALID,916.494,VALID,0,VALID,100,VALID,-0.101885,VALID,19.5363,VALID,167,VALID,0.788061,